Location: Saint-Usage
(47.1052°N, 5.2587°E)
Time: 18:21:34
(UTC+01:00)

VELOX 1 - Visible Passes

Search period start: 03 December 2021 00:00
Search period end: 13 December 2021 00:00
Orbit: 627 x 641 km, 98.3° (Epoch: 03 December)

Date Brightness Start Highest point End Pass type
(mag) Time Alt. Az. Time Alt. Az. Time Alt. Az.
03 Dec ? 17:56:15 10° N 18:00:33 51° WNW 18:04:49 10° SW visible
04 Dec ? 18:18:10 10° N 18:22:07 32° WNW 18:26:01 10° SW visible
05 Dec ? 18:40:17 10° NNW 18:43:36 21° WNW 18:46:54 10° WSW visible
06 Dec ? 17:24:50 10° NNE 17:29:17 78° ESE 17:33:40 10° S visible
06 Dec ? 19:02:44 10° NNW 19:05:01 14° WNW 19:07:19 10° W visible
07 Dec ? 17:46:32 10° N 17:50:55 65° WNW 17:55:16 10° SSW visible
08 Dec ? 18:08:22 10° N 18:12:31 40° WNW 18:16:36 10° SW visible
09 Dec ? 18:30:23 10° N 18:34:01 26° WNW 18:37:39 10° WSW visible
10 Dec ? 17:15:11 10° NNE 17:19:35 61° ESE 17:23:55 10° S visible
10 Dec ? 18:52:37 10° NNW 18:55:29 17° WNW 18:58:19 10° W visible
11 Dec ? 17:36:50 10° NNE 17:41:15 82° WNW 17:45:38 10° SSW visible
11 Dec ? 19:15:31 10° NW 19:16:51 11° NW 19:18:11 10° WNW visible
12 Dec ? 17:58:35 10° N 18:02:52 50° WNW 18:07:06 10° SW visible
